Satellite-Ground Cal/Val Site Overpasses Predictions

Prediction of Satellite NPP Overpassing Cal/Val Site: Antarctic Dome C

Ground Cal/Val Site Location: Latitude: -75.10, Longitude: 123.35; Satellite-Ground Site NADIR distance within 100 km.

Table of predicted overpasses for the next 14.0 days since TLE Epoch: 5/10/2019
Interval Starting Time Ending Time Minimum Distance Time Minimum Distance (km)
1 05/11/2019 14:54:46 05/11/2019 14:55:15 05/11/2019 14:55:00 21.94
2 05/12/2019 14:36:04 05/12/2019 14:36:19 05/12/2019 14:36:11 85.24
3 05/13/2019 07:37:37 05/13/2019 07:38:04 05/13/2019 07:37:51 35.27
4 05/14/2019 07:18:53 05/14/2019 07:19:12 05/14/2019 07:19:02 74.71
5 05/16/2019 15:01:07 05/16/2019 15:01:31 05/16/2019 15:01:19 59.01
6 05/17/2019 14:42:18 05/17/2019 14:42:43 05/17/2019 14:42:31 50.14
7 05/18/2019 07:44:00 05/18/2019 07:44:20 05/18/2019 07:44:10 70.68
8 05/19/2019 07:25:07 05/19/2019 07:25:34 05/19/2019 07:25:21 37.17
9 05/21/2019 15:07:36 05/21/2019 15:07:42 05/21/2019 15:07:39 96.95
10 05/22/2019 14:48:35 05/22/2019 14:49:04 05/22/2019 14:48:50 14.27


NCC Satellite Cal/Val Overpasses Prediction Service
